Regional Weather Roundup
Issued by NWS

Home | Current Version | Previous Version | Graphics & Text | Print | Product List | Glossary Off
Versions: 1 2 3 4 5 6 7 8 9 10 11 12 13 14 15 16 17 18 19 20 21 22 23 24 25 26 27 28 29 30 31 32 33 34 35 36 37 38 39 40 41 42 43 44 45 46 47 48 49 50

000
ASUS43 KTOP 251708
RWRKS

WEATHER ROUNDUP FOR KANSAS
NATIONAL WEATHER SERVICE GOODLAND KS
1100 AM CST SUN JAN 25 2015

NOTE:  "FAIR" INDICATES FEW OR NO CLOUDS BELOW 12,000 FEET WITH NO
SIGNIFICANT WEATHER AND/OR OBSTRUCTIONS TO VISIBILITY.

KSZ001>006-013>018-027>032-041>047-251800-
NORTHWEST KANSAS

CITY           SKY/WX    TMP DP  RH WIND       PRES   REMARKS
GOODLAND       SUNNY     47  29  49 NW24G31   30.12R
HAYS           SUNNY     46  25  42 N32G40    30.07R
HILL CITY      SUNNY     47  26  44 NW25G33   30.09R
RUSSELL        MOSUNNY   47  29  49 N30G40    30.05R
$$

KSZ061>065-074>080-084>089-251800-
SOUTHWEST KANSAS

CITY           SKY/WX    TMP DP  RH WIND       PRES   REMARKS
DODGE CITY     SUNNY     47  24  40 N29G37    30.10R
ELKHART          N/A     49  26  41 NW17        N/A
GARDEN CITY    FAIR      48  22  35 N25G35    30.13R
GREAT BEND     SUNNY     46  28  49 NW31G39   30.05R
LIBERAL        SUNNY     50  27  40 N26G35    30.18R
PRATT          SUNNY     46  28  49 N28G36    30.06R
$$

KSZ066>073-081>083-090>101-251800-
SOUTHEAST KANSAS

CITY           SKY/WX    TMP DP  RH WIND       PRES   REMARKS
CHANUTE        CLOUDY    43  32  65 NW26G38   29.86R
COFFEYVILLE    CLOUDY    47  33  58 NW21      29.87R
HUTCHINSON     MOSUNNY   50  28  42 NW30G45   29.98R
MEDICINE LODGE   N/A     49  28  44 N26G41    30.03R
NEWTON         CLOUDY    45  28  53 NW29G40   29.95R
PARSONS        CLOUDY    46  33  60 N25G35    29.88R
WICHITA INTL   PTSUNNY   49  28  44 NW33G41   29.96R
WICHITA JABRA  CLOUDY    47  30  51 NW23G31   29.95R
WICHITA MCCONL PTSUNNY   48  30  50 NW23G43   29.94R
WINFIELD       CLOUDY    49  30  48 NW28G38   29.95R
$$

KSZ007>012-019>026-033>040-048>060-102>105-251800-
NORTHEAST KANSAS

CITY           SKY/WX    TMP DP  RH WIND       PRES   REMARKS
CONCORDIA      CLOUDY    43  33  68 N24G36    29.99R
EMPORIA        CLOUDY    42  32  67 NW24G37   29.89R
LAWRENCE       LGT RAIN  38  33  82 NW24G36   29.84R WCI  27
MANHATTAN      PTSUNNY   44  32  62 N15G26    29.94R
MARYSVILLE     CLOUDY    37  32  81 N24G30    29.93R WCI  26
OLATHE IND     CLOUDY    37  33  85 NW21G31   29.81R WCI  26
OLATHE EXE     CLOUDY    37  33  85 NW22G32   29.78R WCI  26
SALINA         CLOUDY    46  31  55 N29G36    29.99R
TOPEKA BILLARD CLOUDY    40  31  70 NW18G33   29.88R WCI  31
TOPEKA FORBES  CLOUDY    41  31  67 NW25G35   29.86R
$$


USA.gov is the U.S. government's official web portal to all federal, state and local government web resources and services.